If you wish to contribute or participate in the discussions about articles you are invited to join SKYbrary as a registered user

 Actions

Istanbul Airport

From SKYbrary Wiki

LTFM
Airport
ICAO: LTFM – IATA: IST
Summary
Name Istanbul Airport
Region Europe
Territory Turkey TR.gif
Location Arnavutkoy, Istanbul
Serving Istanbul
Elevation 99.06 m
325 ft99.06 m
Coordinates 41° 15' 41.47" N, 28° 44' 33.79" E
Runways
Designator Length Width Surface ROPS


METAR
Observation LTFM 250650Z 25010KT 9999 FEW018TCU SCT035 BKN080 20/14 Q1012 NOSIG
Station Istanbul New Airport
Date/Time 25 May 2019 06:50:00
Wind direction 250°
Wind speed 10 kts
Lowest cloud amount few clouds
Temperature 20°C
Dew point 14°C
Humidity 68%
QNH 1012 hPa
Weather condition n/a

Istanbul Airport is the main international airport serving Istanbul, Turkey. It is located in the Arnavutköy district on the European side of the city.

Climatology

Dry-summer subtropical ”Mediterranean" climate (Köppen climate classification Csa)

Maps

Terrain

Loading map...

Airport Layout

Loading map...


Accidents & Serious Incidents at or in vicinity of LTFM

None on SKYbrary